Temperature
17 17 17 17 17 17 17 17 17 16 16 16 16 16 16 16 16 16 16 16 16 16 16 16 16 16 15 15 15 15 15 15 15 15 15 15 14 14
17 17 17 17 17 17 16 16 16 16 16 16 16 16 16 16 16 16 16 16 16 16 16 16 16 15 15 15 15 15 15 15 15 15 15 14 14 14
17 16 16 16 16 16 16 16 16 16 16 16 16 16 16 16 16 16 16 15 15 15 15 15 15 15 15 15 15 15 15 15 14 14 14 14 14 14
17 16 16 16 16 16 16 16 16 16 16 16 16 16 16 15 15 15 15 15 15 15 15 15 15 15 15 15 15 15 14 14 14 14 14 14 14 14
16 16 16 16 16 16 16 16 16 15 15 15 15 15 15 15 15 15 15 15 15 15 15 15 15 15 15 15 15 14 14 14 14 14 14 14 14 14
16 16 16 16 16 16 16 16 15 15 15 15 15 15 15 15 15 15 15 15 15 15 15 15 15 15 14 14 14 14 14 14 14 14 14 14 14 13
16 16 16 15 15 15 15 15 15 15 15 15 15 15 15 15 15 14 15 15 15 14 14 14 14 14 14 14 14 14 14 14 14 14 14 14 13 13
16 16 16 15 15 15 15 15 15 15 15 15 15 14 14 14 14 14 14 14 14 14 14 14 14 14 14 14 14 14 14 14 14 14 13 13 13 13
16 16 16 16 15 15 15 15 15 15 15 15 14 14 14 14 14 14 14 14 14 14 14 14 14 14 14 14 14 14 14 14 14 13 13 13 13 13
16 16 15 15 15 15 15 15 15 15 14 14 14 14 14 14 14 13 13 13 14 14 14 14 14 14 14 14 14 13 13 13 13 13 13 13 13 13
15 15 15 15 15 15 15 15 15 15 14 14 14 14 14 14 13 13 13 13 13 13 13 13 13 13 13 13 13 13 13 13 13 13 13 13 13 12
15 15 15 15 14 14 14 14 14 14 14 14 14 14 14 13 13 13 13 13 13 13 13 13 13 13 13 13 13 13 13 13 13 13 13 12 12 12
15 14 14 14 14 14 14 14 14 14 14 14 13 13 13 13 13 13 13 13 13 13 13 13 12 12 12 12 12 12 12 12 12 12 12 12 12 12
14 14 14 14 14 14 14 14 14 13 13 13 13 13 13 13 13 13 12 12 12 12 12 12 12 12 12 12 12 12 12 12 12 12 12 12 12 12
14 14 14 14 14 14 13 13 13 13 13 13 13 13 12 12 12 12 12 12 12 12 12 12 12 12 12 12 12 12 12 12 12 12 12 11 11 11
14 14 14 14 13 13 13 13 13 13 12 12 12 12 12 12 12 12 12 12 12 12 12 12 11 11 11 11 11 11 11 11 11 11 11 11 11 11
13 13 13 13 13 13 13 13 12 12 12 12 12 12 12 12 12 11 11 11 11 11 11 11 11 11 11 11 11 11 11 11 11 11 11 11 11 11
13 13 13 13 13 13 13 12 12 12 12 12 12 11 11 11 11 11 11 11 11 11 11 11 10 10 11 11 10 10 10 10 10 10 10 10 10 10
13 13 13 13 13 12 12 12 12 12 11 11 11 11 11 11 11 10 10 10 10 10 10 10 10 9 9 9 10 10 9 10 10 10 10 10 10 10
13 12 12 12 12 12 12 12 11 11 11 11 11 10 10 10 10 10 10 9 9 9 9 9 9 9 9 9 9 9 9 9 9 9 9 9 9 9
12 12 12 12 12 12 11 11 11 11 11 10 10 10 10 10 9 9 9 9 9 9 9 9 9 8 8 8 8 8 9 8 8 8 8 8 8 8
12 12 11 11 11 11 11 11 10 10 10 10 10 10 9 9 9 9 8 8 8 8 8 8 8 8 8 8 8 8 8 8 8 8 8 7 7 7
11 11 11 11 11 11 10 10 10 10 9 9 9 9 9 8 8 8 8 8 8 8 8 8 8 8 7 7 7 7 7 7 7 7 7 7 7 7
Wind_Speed
2 2 1 1 1 1 2 4 4 2 3 3 2 3 3 5 6 7 6 7 8 8 8 9 9 9 9 8 8 7 6 6 6 6 7 9 10 10
2 1 1 1 1 1 1 2 3 4 3 3 3 3 3 4 6 6 6 7 8 8 9 9 9 9 9 9 9 8 7 7 6 6 6 6 7 8
2 1 2 1 1 1 1 1 1 2 3 3 2 2 2 2 2 4 5 6 7 9 9 9 9 10 9 9 8 8 8 8 7 7 6 6 7 8
2 2 2 1 1 1 0 1 2 2 3 3 2 1 2 2 2 3 3 4 5 7 7 7 7 9 9 10 10 10 10 9 9 8 8 7 7 8
3 3 2 1 1 1 1 1 2 1 2 2 2 1 1 1 1 2 2 2 4 5 6 7 7 8 9 10 10 11 11 11 10 10 9 9 9 9
2 3 2 3 2 2 2 1 1 1 1 1 1 2 1 1 1 1 2 2 3 3 4 5 7 8 9 10 10 11 11 12 12 12 11 11 10 10
2 2 2 2 3 2 2 2 2 2 1 2 2 1 2 1 2 2 2 2 3 2 2 3 3 4 6 8 10 11 11 12 12 12 12 12 12 11
2 2 2 2 2 2 2 2 4 4 4 3 2 3 3 3 2 2 1 1 2 2 1 3 2 3 4 6 9 10 11 11 11 11 12 12 12 12
3 2 2 1 1 1 2 1 1 2 5 5 3 4 4 3 2 2 2 2 3 3 1 3 2 3 4 7 9 10 10 10 11 11 12 12 12 12
3 3 2 1 1 1 1 0 1 2 2 3 3 4 4 3 4 3 3 2 3 2 2 2 2 3 4 5 7 9 10 11 11 11 11 12 12 12
2 2 2 2 2 2 1 0 2 3 3 1 3 3 3 3 3 1 0 0 2 3 1 1 2 2 2 3 6 8 9 10 10 11 11 11 11 10
1 1 2 2 2 2 2 1 2 3 2 2 2 2 2 3 3 3 3 2 2 3 2 1 2 1 2 3 2 4 5 7 9 10 10 10 9 6
1 1 2 2 2 2 2 2 4 3 1 1 1 2 2 2 2 3 4 4 3 4 3 2 2 1 2 3 3 2 2 3 3 5 7 9 9 8
2 2 1 1 2 2 1 2 1 0 0 1 1 2 2 3 3 3 4 5 6 6 5 3 3 3 2 2 3 3 2 3 3 3 4 5 7 10
2 3 2 1 1 1 2 1 0 0 0 1 2 3 3 3 2 2 3 3 3 5 6 4 4 3 3 4 3 3 2 3 3 3 3 3 4 4
1 1 0 1 0 1 1 0 0 1 1 2 2 2 2 2 2 2 2 2 2 4 5 4 4 4 3 4 4 4 3 3 3 3 4 4 4 5
2 1 1 1 1 1 1 1 0 0 1 1 1 2 2 2 3 2 1 1 1 3 5 4 4 3 4 3 3 4 3 3 4 3 3 4 5 5
4 1 1 2 2 2 2 2 1 2 2 1 1 1 1 2 2 2 2 1 2 3 3 3 3 3 3 3 3 3 3 4 4 3 3 3 5 5
3 2 2 2 2 2 2 2 2 2 1 1 1 1 1 2 2 2 2 2 2 3 3 3 2 1 3 5 4 2 2 3 3 3 3 3 5 5
2 2 2 2 2 2 1 1 1 1 1 1 1 1 1 1 1 2 2 2 3 3 3 3 2 2 4 5 4 4 3 3 3 3 3 3 3 4
2 2 2 1 1 1 1 1 1 0 1 1 1 1 1 1 2 2 2 4 3 2 3 4 5 6 3 1 2 4 4 5 4 3 3 2 3 2
2 2 2 1 1 1 1 1 1 0 1 1 2 2 2 2 2 3 2 2 3 3 4 4 4 3 1 2 3 4 5 5 6 6 5 4 3 3
2 2 2 2 2 1 1 1 1 1 1 1 2 2 2 2 2 2 2 3 3 3 3 4 4 3 2 2 3 4 5 5 3 3 4 7 7 8
Wind_Direction
235 224 221 243 228 214 186 175 172 210 255 252 246 246 224 209 214 206 208 219 220 221 226 232 232 228 228 228 229 232 235 238 240 236 233 231 232 234
229 202 230 251 246 237 204 193 177 185 221 241 235 240 222 220 217 210 216 223 224 227 228 232 232 229 226 224 225 226 226 232 236 233 232 237 236 237
255 221 241 244 242 267 237 198 192 175 208 262 262 252 215 226 229 223 227 225 231 235 235 236 233 230 226 225 227 228 228 230 233 235 236 237 241 242
246 224 244 246 258 275 272 243 225 203 188 231 275 280 248 240 239 239 245 239 236 238 233 237 236 234 231 228 227 228 230 231 233 234 237 239 241 243
214 203 222 206 236 255 253 239 230 223 183 195 252 271 274 276 288 278 267 274 250 242 231 239 241 240 236 233 231 230 230 231 233 234 236 239 241 243
212 204 208 203 214 229 235 225 206 190 190 192 245 272 269 272 228 253 287 286 268 262 247 246 246 244 240 237 236 234 233 234 235 236 238 239 239 239
212 207 209 201 208 217 221 210 194 201 205 207 234 266 272 275 254 243 253 275 280 258 272 266 247 246 243 242 240 240 237 235 236 237 238 240 241 237
205 224 224 208 236 247 242 215 198 203 208 209 225 232 250 243 243 242 233 299 286 268 226 269 227 245 245 241 246 244 241 238 237 239 239 240 241 241
194 206 229 251 235 258 269 269 264 234 204 196 208 233 239 235 223 239 231 230 248 258 207 266 266 258 257 253 244 243 245 243 242 241 240 241 242 243
207 203 200 239 259 214 194 341 311 296 246 211 219 236 233 228 211 217 223 248 279 276 182 239 268 259 264 262 255 249 248 246 245 247 246 243 241 243
225 205 197 205 243 187 142 262 315 313 315 229 213 234 241 234 197 150 6 24 301 289 233 208 267 278 278 267 265 258 250 249 251 252 250 245 242 241
270 258 219 205 223 180 170 183 268 288 319 359 345 315 294 275 227 196 197 208 243 278 263 207 249 272 300 284 272 278 270 263 259 256 253 247 239 230
215 263 275 249 237 222 184 203 241 252 284 333 330 324 320 296 272 232 207 198 208 240 247 194 224 219 225 280 296 272 262 262 260 263 261 251 234 215
213 235 240 229 229 242 224 263 261 271 354 360 337 310 303 293 282 265 243 229 227 235 244 198 207 216 221 253 272 283 272 261 244 248 255 254 239 230
228 225 212 206 222 241 256 259 265 64 47 335 297 288 283 285 297 306 304 282 273 270 266 237 217 223 208 228 247 256 274 272 251 245 248 237 230 220
247 286 83 113 55 317 326 341 130 188 203 236 264 287 310 333 334 322 312 316 321 314 310 286 249 227 238 242 236 254 246 250 262 248 247 248 239 229
159 74 40 32 2 334 325 311 285 297 265 279 291 313 326 332 325 333 341 345 330 314 320 328 321 283 243 233 250 258 259 262 256 255 247 257 252 240
131 146 199 225 235 244 254 273 268 249 251 254 263 284 299 304 313 327 345 331 303 300 302 313 336 345 344 317 248 255 271 270 274 262 239 249 266 262
137 192 216 225 237 247 240 238 255 260 251 237 247 276 285 292 300 316 322 313 297 293 294 303 324 322 306 297 295 259 253 280 287 276 257 245 256 262
184 212 229 233 224 228 229 231 257 300 325 306 299 303 300 301 308 312 305 297 295 302 311 316 300 270 256 266 276 292 280 255 266 273 275 275 273 282
219 230 227 214 215 199 195 187 176 179 336 320 320 304 295 293 290 294 297 301 299 305 304 294 283 284 272 293 308 303 299 293 273 258 266 280 295 307
201 210 219 207 188 178 173 165 127 71 340 311 294 292 288 278 273 282 296 305 300 291 289 293 305 326 335 282 281 286 295 308 309 305 288 247 223 237
200 200 201 194 188 174 161 152 148 243 266 275 283 290 295 297 293 287 283 283 290 297 305 311 322 325 304 278 279 286 293 301 306 319 312 305 276 263
Height
1530 1530 1530 1529 1529 1529 1529 1529 1529 1528 1528 1528 1528 1528 1527 1527 1527 1526 1525 1525 1524 1524 1523 1523 1523 1522 1522 1521 1520 1520 1520 1520 1519 1519 1520 1520 1521 1522
1527 1527 1527 1527 1527 1527 1526 1526 1526 1526 1525 1525 1525 1525 1525 1525 1524 1524 1523 1523 1522 1521 1521 1521 1520 1520 1519 1519 1519 1518 1518 1518 1518 1517 1517 1517 1518 1519
1524 1524 1523 1523 1523 1523 1523 1523 1523 1523 1522 1522 1523 1522 1522 1522 1522 1521 1521 1520 1520 1519 1519 1518 1518 1518 1517 1517 1517 1516 1516 1516 1516 1515 1515 1515 1515 1516
1520 1521 1521 1521 1521 1521 1521 1520 1521 1521 1520 1520 1519 1519 1519 1519 1519 1518 1518 1518 1517 1517 1516 1516 1515 1515 1515 1515 1514 1514 1514 1514 1513 1513 1513 1513 1513 1513
1519 1519 1519 1519 1518 1518 1518 1518 1518 1518 1518 1517 1517 1517 1517 1517 1516 1516 1515 1515 1515 1514 1514 1514 1513 1513 1512 1512 1512 1512 1511 1511 1511 1510 1510 1510 1510 1510
1517 1517 1517 1516 1516 1516 1515 1515 1515 1515 1515 1515 1514 1514 1514 1514 1513 1513 1512 1512 1512 1512 1511 1511 1511 1510 1510 1510 1509 1509 1508 1508 1508 1507 1507 1507 1507 1506
1515 1515 1515 1515 1514 1514 1513 1513 1512 1512 1512 1511 1511 1511 1511 1511 1510 1510 1509 1509 1509 1509 1508 1508 1508 1507 1507 1507 1507 1506 1505 1505 1504 1504 1504 1503 1503 1503
1513 1513 1512 1513 1512 1512 1511 1510 1510 1509 1509 1509 1508 1508 1508 1508 1508 1507 1507 1506 1505 1506 1505 1505 1505 1504 1504 1504 1503 1503 1502 1502 1501 1501 1500 1500 1500 1499
1511 1510 1510 1510 1510 1509 1509 1508 1508 1507 1507 1507 1506 1505 1505 1505 1505 1504 1504 1503 1503 1503 1503 1501 1501 1501 1501 1500 1500 1500 1499 1499 1498 1497 1497 1497 1496 1496
1509 1509 1508 1508 1508 1507 1507 1506 1506 1505 1504 1504 1503 1503 1503 1503 1503 1502 1502 1501 1501 1500 1500 1498 1498 1497 1497 1497 1497 1496 1496 1495 1495 1494 1494 1493 1493 1492
1507 1507 1507 1506 1506 1506 1505 1504 1503 1503 1503 1502 1501 1501 1501 1500 1500 1500 1499 1498 1497 1497 1497 1496 1494 1494 1493 1493 1493 1492 1492 1491 1491 1490 1490 1489 1489 1488
1504 1505 1505 1504 1504 1503 1503 1502 1501 1500 1500 1500 1499 1498 1498 1498 1497 1497 1496 1495 1494 1494 1493 1493 1492 1491 1490 1489 1489 1489 1488 1487 1487 1486 1486 1485 1484 1484
1502 1502 1502 1502 1501 1501 1500 1500 1499 1498 1498 1497 1496 1496 1496 1495 1495 1494 1494 1493 1492 1491 1491 1490 1489 1488 1487 1486 1485 1485 1484 1483 1483 1482 1482 1481 1481 1480
1499 1499 1499 1499 1499 1499 1498 1497 1497 1496 1495 1495 1494 1493 1493 1492 1492 1491 1491 1490 1490 1489 1488 1487 1486 1484 1483 1482 1481 1480 1480 1479 1479 1478 1478 1477 1476 1476
1497 1497 1497 1497 1496 1496 1496 1495 1494 1494 1493 1492 1491 1491 1490 1490 1489 1488 1487 1487 1486 1485 1484 1483 1482 1481 1480 1478 1477 1476 1475 1475 1475 1474 1473 1472 1472 1471
1495 1495 1495 1495 1494 1494 1493 1493 1492 1491 1491 1490 1489 1489 1488 1487 1486 1485 1484 1483 1482 1481 1480 1479 1478 1477 1475 1474 1474 1472 1471 1470 1470 1469 1468 1467 1467 1466
1492 1492 1492 1492 1492 1491 1491 1490 1490 1489 1489 1488 1487 1486 1485 1484 1483 1482 1481 1479 1478 1477 1476 1475 1474 1473 1472 1471 1469 1468 1467 1466 1465 1464 1463 1462 1461 1461
1490 1489 1489 1489 1489 1489 1488 1488 1487 1487 1486 1485 1484 1483 1482 1481 1480 1479 1478 1476 1475 1473 1472 1471 1470 1468 1467 1466 1466 1464 1463 1461 1460 1460 1459 1457 1456 1456
1487 1486 1486 1486 1486 1486 1486 1485 1485 1484 1484 1483 1481 1480 1479 1478 1477 1475 1474 1473 1471 1470 1469 1468 1466 1464 1463 1461 1460 1460 1458 1457 1456 1455 1454 1453 1452 1451
1484 1484 1484 1484 1483 1483 1483 1482 1482 1481 1481 1480 1478 1477 1476 1475 1473 1472 1471 1470 1468 1467 1465 1464 1463 1461 1460 1458 1456 1455 1455 1453 1451 1450 1449 1448 1447 1446
1481 1481 1481 1481 1480 1480 1480 1479 1479 1478 1477 1476 1475 1474 1472 1471 1470 1469 1468 1466 1465 1463 1462 1460 1459 1459 1457 1455 1453 1451 1450 1449 1448 1446 1444 1443 1441 1440
1479 1479 1479 1479 1478 1477 1477 1476 1475 1474 1473 1472 1471 1470 1469 1468 1466 1465 1464 1463 1461 1460 1458 1457 1456 1454 1453 1451 1448 1446 1445 1444 1443 1442 1441 1440 1438 1436
1477 1477 1476 1476 1475 1474 1473 1473 1472 1471 1470 1469 1467 1466 1465 1464 1463 1462 1460 1459 1458 1456 1454 1453 1452 1450 1448 1447 1445 1443 1441 1439 1438 1436 1436 1435 1434 1433